,

(GMT )
Konstanz

Weather History for EDTZ - October, 2012

Change the Weather History Date:

Sunday, October 14, 2012

  Actual Average Record
Temperature  
Mean Temperature 52 °F -  
Max Temperature 58 °F - - ()
Min Temperature 45 °F - - ()
Degree Days  
Heating Degree Days 14    
Growing Degree Days 2 (Base 50)    
Moisture  
Dew Point 43 °F    
Average Humidity 67    
Maximum Humidity 93    
Minimum Humidity 48    
Precipitation  
Precipitation 0.02 in - - ()
Sea Level Pressure  
Sea Level Pressure 29.68 in    
Wind  
Wind Speed 4 mph ()    
Max Wind Speed 9 mph    
Max Gust Speed -    
Visibility 18.6 miles    
Events Rain    
T = Trace of Precipitation, MM = Missing Value Source: Averaged Metar Reports

Daily Weather History Graph

Daily Weather History Graph

Search for Another Location

Airport or City:

Trip Planner

Search our weather history database for the weather conditions in past years. The results will help you decide how hot, cold, wet, or windy it might be!

Date:

Astronomy

Oct. 14, 2012 Rise Set
Actual Time 7:41 AM CEST 6:36 PM CEST
Civil Twilight 7:09 AM CEST 7:07 PM CEST
Nautical Twilight 6:34 AM CEST 7:43 PM CEST
Astronomical Twilight 5:58 AM CEST 8:18 PM CEST
Moon 6:18 AM CEST (10/14) 5:46 PM CEST (10/14)
Length of Visible Light 11h 57m
Length of Day
10h 55m
Waning Crescent, 2% of the Moon is Illuminated
Oct 14
Waning Crescent
Oct 15
New
Oct 22
First Quarter
Oct 29
Full
Nov 7
Last Quarter

Hourly Weather History & Observations

Time (CEST) Temp. Dew Point Humidity Pressure Visibility Wind Dir Wind Speed Gust Speed Precip Events Conditions
12:00 AM 46 °F 45 °F 93% 29.86 in 16 mi South 4.5 mph - -   Clear
2:00 AM 49 °F 43 °F 74% 29.83 in 19 mi WSW 6.7 mph - -   Scattered Clouds
3:00 AM 48 °F 42 °F 75% 29.82 in 22 mi WNW 4.5 mph - -   Partly Cloudy
4:00 AM 48 °F 42 °F 74% 29.81 in 19 mi WNW 4.5 mph - -   Clear
5:00 AM 47 °F 41 °F 74% 29.80 in 22 mi West 2.2 mph - -   Partly Cloudy
6:00 AM 48 °F 40 °F 67% 29.78 in 25 mi WNW 4.5 mph - -   Partly Cloudy
7:00 AM 47 °F 42 °F 75% 29.79 in 25 mi WNW 4.5 mph - -   Mostly Cloudy
8:00 AM 46 °F 42 °F 82% 29.78 in 44 mi SW 2.2 mph - -   Mostly Cloudy
9:00 AM 48 °F 42 °F 72% 29.76 in 44 mi WNW 2.2 mph - -   Partly Cloudy
10:00 AM 52 °F 43 °F 63% 29.72 in 44 mi West 2.2 mph - -   Partly Cloudy
11:00 AM 56 °F 44 °F 53% 29.69 in 44 mi ESE 4.5 mph - -   Partly Cloudy
12:00 PM 55 °F 45 °F 59% 29.66 in 44 mi ESE 6.7 mph - -   Partly Cloudy
2:00 PM 56 °F 44 °F 54% 29.60 in 31 mi ESE 4.5 mph - -   Scattered Clouds
4:00 PM 56 °F 42 °F 48% 29.55 in 31 mi ESE 4.5 mph - -   Scattered Clouds
5:00 PM 56 °F 43 °F 52% 29.52 in 31 mi ESE 4.5 mph - -   Scattered Clouds
6:00 PM 55 °F 45 °F 60% 29.52 in 31 mi NNW 2.2 mph - -   Overcast
7:00 PM 53 °F 44 °F 64% 29.54 in 31 mi NW 4.5 mph - -   Mostly Cloudy
8:00 PM 52 °F 45 °F 70% 29.54 in 19 mi NNW 2.2 mph - -   Overcast
9:00 PM 52 °F 47 °F 76% 29.56 in 19 mi WSW 4.5 mph - -   Overcast
10:00 PM 54 °F 44 °F 59% 29.55 in 19 mi West 8.9 mph - - Rain Light Rain
11:00 PM 52 °F 45 °F 68% 29.55 in 19 mi North 4.5 mph - - Rain Light Rain